SL-16 DEB, 22331

Orbit data source: Space-Track

SL-16 DEB, 22331 is space debris in LEO originally from a launch on Fri, 25 Dec 1992 UTC launched from the Tyuratam Missile And Space Complex (TTMTR). Debris objects in space refer to the collection of defunct objects orbiting the Earth. Examples of debris include non-operational satellites, rocket bodies, and fragments generated from explosions, collisions, or faulty payload assembly.

Loading next visibility...
Identifier
22331, 1992-093U
Orbit
LEO
Country
Flag of CISCIS
Related business
Manufacturer
Unknown
Mission
Spacecraft
Bus & Motor
Unknown
Mass
Unknown
Launch date (UTC)
1992-12-25 (33 years ago)
Launch vehicle
Unknown
Launch site
Tyuratam Missile And Space Complex (TTMTR)
Object type
Payload
Rocket body
Debris
Shape & HBR
Unknown shape, 0.5 m
Radar Cross Section
Medium (>0.1 m² and <1 m²)

Expand to show TLE details & history
Last TLE update: 10 hours ago

TLE from 10 hours ago
0 SL-16 DEB
1 22331U 92093U   25296.59231286  .00000030  00000-0  46875-4 0  9991
2 22331  70.9216 242.4541 0078902 281.6961 252.4892 14.04947549681845
Epoch: 2025-10-23T14:12Z
TLE epoch observation values (Epoch: 2025-10-23T14:12:55.831Z)
Latitude
6.23863°
Longitude
174.81672°
Altitude
896.139 km
Speed
7.396 km/s
True Right ascension
04h 01m 11s
True Declination
6° 12' 08"
Sunlit
Object was in full shadow at epoch
Visualization orbit readout
Latitude
Unknown
Longitude
Unknown
Altitude
Unknown
Speed
Unknown
Apparent Right ascension
Unknown
Apparent Declination
Unknown
Sunlit
N/A
Visualization observer readout
Local Sidereal Time
19:32:01
Azimuth
Unknown
Elevation
Unknown
Doppler factor
Unknown
Orbital elements
Apogee altitude
931.881 km
Perigee altitude
817.429 km
Semi-major axis
7,252.792 km
Eccentricity
0.00789
Inclination
70.9216°
RAAN
242.4541°
Arg. of periapsis
281.6961°
True anomaly
251.62953°
Mean anomaly
252.4892°
Eccentric anomaly
252.05911°
Mean motion
3.51387 °/min
Orbital period
102.45 mins
BSTAR
0.000046875
Loading maneuver chart data...
Computing Atmospheric mass density...
Loading historical data...
Loading historical data...
Loading historical data...
Loading historical data...
Loading historical data...
Loading historical data...
Loading historical data...

Documentation

Showing up to 5 results
|